{"data":{"norad_id":63721,"intl_designator":"2025-087AA","name":"STARLINK-33774","alt_names":[],"object_type":"PAYLOAD","status":"ACTIVE","operator":null,"country":"US","launch_date":"2025-04-28","launch_site_code":"AFWTR","launch_vehicle":null,"mission":null,"orbit_class":"UNKNOWN","rcs_meters":null,"size_class":null,"mass_kg":null,"dimensions":null,"purposes":["comms"],"wikipedia_slug":null,"has_3d_model":false,"image_url":null,"decayed_at":null,"tle_current":{"epoch":"2026-05-24T22:15:08.137728Z","epoch_age_seconds":75338,"freshness":"FRESH","line1":"1 63721U 25087AA  26144.92717752  .00015230  00000+0  50133-3 0  9993","line2":"2 63721  53.1586 225.3166 0001886  87.1995 272.9222 15.31712565 60879","mean_motion":15.31712565,"eccentricity":0.0001886,"inclination_deg":53.1586,"raan_deg":225.3166,"arg_perigee_deg":87.1995,"mean_anomaly_deg":272.9222,"bstar":0.00050133,"rev_number":6087,"period_min":94.0124167487,"perigee_km":469.41084873331,"apogee_km":471.99423100774,"semimajor_km":6848.8395398705,"source":"CELESTRAK","updated_at":"2026-05-25T13:38:20.102088Z"}}}